EW6224 Weather Reports


time (UTC)temp
C
wind
direction
speed
KPH
gust
KPH
rain 1hr
cm
rain 24hr
cm
rain mn
cm
humidity
%
barometer
mb
20260510184554 17 342 9.7 20.9 0.00 0.03 0.03 46 1017.7
20260510183054 17 5 6.4 14.5 0.00 0.03 0.03 47 1017.7
20260510181551 17 263 1.6 14.5 0.03 0.03 0.03 45 1017.6
20260510180105 17 242 0.0 9.7 0.03 0.03 0.03 52 1017.5
20260510174603 17 31 6.4 11.3 0.03 0.03 0.03 49 1017.1
20260510173052 17 23 1.6 19.3 0.03 0.03 0.03 58 1017.3
20260510171604 17 285 1.6 12.9 0.00 0.00 0.00 53 1017.3
20260510170053 16 19 4.8 14.5 0.00 0.00 0.00 51 1017.3
20260510164605 16 22 3.2 14.5 0.00 0.00 0.00 52 1017.5
20260510163137 16 0 3.2 9.7 0.00 0.00 0.00 49 1017.6
20260510161552 16 17 3.2 14.5 0.00 0.00 0.00 51 1017.5
20260510160056 16 9 4.8 17.7 0.00 0.00 0.00 56 1017.4
20260510154555 15 5 3.2 12.9 0.00 0.00 0.00 52 1017.1
20260510153102 16 21 3.2 8.0 0.00 0.00 0.00 57 1017.0
20260510151625 15 38 1.6 6.4 0.00 0.00 0.00 54 1016.8
20260510150100 15 32 1.6 11.3 0.00 0.00 0.00 55 1016.7
20260510144614 15 0 1.6 12.9 0.00 0.00 0.00 56 1016.6
20260510143105 14 58 4.8 12.9 0.00 0.00 0.00 59 1016.2
20260510141558 13 38 3.2 12.9 0.00 0.00 0.00 58 1016.0
20260510140053 13 53 3.2 9.7 0.00 0.00 0.00 62 1016.0
20260510134558 13 103 3.2 12.9 0.00 0.00 0.00 63 1015.8
20260510133058 12 0 3.2 8.0 0.00 0.00 0.00 64 1015.9
20260510131559 12 15 3.2 8.0 0.00 0.00 0.00 66 1015.6
20260510130054 11 17 3.2 8.0 0.00 0.00 0.00 65 1015.5
20260510124559 11 29 1.6 6.4 0.00 0.00 0.00 66 1015.5
20260510123052 11 11 1.6 4.8 0.00 0.00 0.00 66 1015.1
20260510121551 11 0 0.0 3.2 0.00 0.00 0.00 72 1014.9
20260510120051 11 0 0.0 1.6 0.00 0.00 0.00 72 1014.7
20260510114552 11 0 0.0 3.2 0.00 0.03 0.00 70 1014.4
20260510113047 10 0 0.0 1.6 0.00 0.03 0.00 69 1014.2
20260510111551 11 11 0.0 3.2 0.00 0.03 0.00 70 1013.8
20260510110052 11 360 0.0 3.2 0.00 0.03 0.00 68 1013.4
20260510104553 11 11 1.6 4.8 0.00 0.03 0.00 73 1013.4
20260510103053 11 0 1.6 6.4 0.00 0.03 0.00 71 1013.1
20260510101556 11 352 1.6 6.4 0.00 0.03 0.00 71 1012.8
20260510100109 11 11 0.0 1.6 0.00 0.03 0.00 73 1012.4
20260510094605 12 334 1.6 8.0 0.00 0.03 0.00 72 1012.2
20260510093058 12 352 3.2 12.9 0.00 0.03 0.00 75 1011.9
20260510091557 12 360 6.4 12.9 0.00 0.03 0.00 76 1011.6
20260510090058 12 5 8.0 16.1 0.00 0.03 0.00 75 1011.3
20260510084611 13 350 3.2 8.0 0.00 0.03 0.00 76 1011.1
20260510083053 13 346 3.2 14.5 0.00 0.03 0.00 74 1010.8
20260510081555 13 348 4.8 12.9 0.00 0.03 0.00 73 1010.8
20260510080048 13 338 6.4 16.1 0.00 0.03 0.00 74 1010.5
20260510074552 14 349 1.6 8.0 0.00 0.03 0.00 78 1010.2
20260510073104 15 319 0.0 3.2 0.00 0.03 0.00 76 1010.3
20260510071553 15 0 0.0 8.0 0.00 0.03 0.00 73 1010.1
20260510070055 15 0 1.6 6.4 0.00 0.03 0.00 72 1010.1
20260510064553 16 0 0.0 6.4 0.00 0.03 0.00 72 1010.2
20260510063057 16 0 0.0 11.3 0.00 0.03 0.00 72 1010.1
20260510061557 16 264 0.0 12.9 0.00 0.03 0.00 73 1010.1
20260510060055 15 190 1.6 16.1 0.00 0.03 0.00 77 1010.1
20260510054551 14 0 0.0 3.2 0.00 0.03 0.00 77 1009.9
20260510053051 14 0 0.0 3.2 0.00 0.03 0.00 76 1009.8
20260510051553 15 0 0.0 1.6 0.00 0.03 0.00 75 1009.7
20260510050052 16 0 0.0 1.6 0.00 0.03 0.00 72 1009.8
20260510044556 16 339 0.0 4.8 0.00 0.03 0.00 71 1009.8
20260510043104 16 123 0.0 3.2 0.00 0.03 0.00 72 1009.3
20260510041554 16 0 0.0 6.4 0.00 0.03 0.00 72 1009.4
20260510040100 16 171 0.0 4.8 0.00 0.03 0.00 72 1009.2
20260510034552 16 0 0.0 4.8 0.00 0.03 0.03 73 1009.2
20260510033115 15 0 0.0 3.2 0.00 0.03 0.03 73 1009.0
20260510031558 16 0 0.0 1.6 0.00 0.03 0.03 72 1009.0
20260510030059 16 0 0.0 4.8 0.00 0.03 0.03 73 1009.1
20260510024552 16 151 0.0 3.2 0.00 0.03 0.03 72 1009.0
20260510023049 16 0 0.0 4.8 0.00 0.03 0.03 71 1008.9
20260510021554 16 0 0.0 1.6 0.00 0.03 0.03 70 1008.7
20260510020056 17 0 0.0 1.6 0.00 0.03 0.03 68 1008.5
20260510014555 17 0 0.0 1.6 0.00 0.03 0.03 66 1008.1
20260510013050 18 0 0.0 3.2 0.00 0.03 0.03 65 1007.8
20260510011600 18 0 0.0 8.0 0.00 0.03 0.03 62 1007.7
20260510010104 18 0 0.0 8.0 0.00 0.03 0.03 62 1007.4
20260510004552 18 0 0.0 9.7 0.00 0.03 0.03 61 1007.4
20260510003053 19 0 0.0 6.4 0.00 0.03 0.03 58 1007.3
20260510001553 20 352 0.0 16.1 0.00 0.03 0.03 56 1007.1
20260510000106 20 0 3.2 19.3 0.00 0.03 0.03 56 1007.0
20260509234559 20 0 0.0 16.1 0.00 0.03 0.03 57 1006.9
20260509233055 20 69 1.6 19.3 0.00 0.03 0.03 58 1006.7
20260509231550 20 232 4.8 17.7 0.00 0.03 0.03 57 1006.8
20260509230053 21 264 1.6 22.5 0.00 0.03 0.03 56 1006.7
20260509224558 21 267 3.2 9.7 0.00 0.03 0.03 56 1006.5
20260509223100 21 207 3.2 11.3 0.00 0.03 0.03 53 1006.4
20260509221559 21 258 3.2 20.9 0.00 0.03 0.03 53 1006.4
20260509220053 22 313 3.2 16.1 0.00 0.03 0.03 54 1006.3
20260509214552 21 196 1.6 17.7 0.00 0.03 0.03 54 1006.5
20260509213058 22 232 3.2 16.1 0.00 0.03 0.03 54 1006.5
20260509211554 22 238 1.6 24.1 0.00 0.03 0.03 58 1006.6
20260509210107 21 155 3.2 17.7 0.00 0.03 0.03 55 1006.7
20260509204601 21 105 1.6 25.7 0.00 0.03 0.03 57 1006.7
20260509203059 22 83 3.2 16.1 0.00 0.03 0.03 61 1006.9
20260509201558 22 113 3.2 14.5 0.00 0.03 0.03 58 1007.3
20260509200105 21 219 4.8 14.5 0.00 0.03 0.03 58 1007.4
20260509194554 21 0 3.2 14.5 0.00 0.03 0.03 64 1007.5
20260509193057 21 134 3.2 19.3 0.00 0.03 0.03 61 1007.5
20260509191549 21 195 4.8 25.7 0.00 0.03 0.03 57 1007.7